TimeCDT,TemperatureF,Dew PointF,Humidity,Sea Level PressureIn,VisibilityMPH,Wind Direction,Wind SpeedMPH,Gust SpeedMPH,PrecipitationIn,Events,Conditions,WindDirDegrees,DateUTC
12:58 AM,60.8,41.4,49,29.99,10.0,South,5.8,-,N/A,,Clear,180,2013-03-16 05:58:00
1:58 AM,54.3,41.9,63,29.99,10.0,South,5.8,-,N/A,,Clear,170,2013-03-16 06:58:00
2:58 AM,53.2,41.9,65,29.99,10.0,South,4.6,-,N/A,,Clear,170,2013-03-16 07:58:00
3:58 AM,54.9,42.3,63,29.98,10.0,South,6.9,-,N/A,,Clear,180,2013-03-16 08:58:00
4:58 AM,51.1,41.7,70,29.99,10.0,South,4.6,-,N/A,,Clear,180,2013-03-16 09:58:00
5:58 AM,49.6,42.3,76,30.01,10.0,SSE,6.9,-,N/A,,Clear,160,2013-03-16 10:58:00
6:58 AM,50.0,43.0,77,30.01,10.0,SSE,5.8,-,N/A,,Clear,160,2013-03-16 11:58:00
7:58 AM,54.1,45.3,72,30.02,10.0,SSE,5.8,-,N/A,,Clear,160,2013-03-16 12:58:00
8:58 AM,59.4,47.3,64,30.03,10.0,South,8.1,-,N/A,,Clear,180,2013-03-16 13:58:00
9:58 AM,64.4,49.5,58,30.03,10.0,SW,9.2,-,N/A,,Clear,220,2013-03-16 14:58:00
10:58 AM,67.6,48.2,50,30.02,10.0,SW,12.7,-,N/A,,Clear,220,2013-03-16 15:58:00
11:58 AM,72.1,46.9,41,30.00,10.0,SW,15.0,-,N/A,,Clear,230,2013-03-16 16:58:00
12:58 PM,74.3,45.1,35,29.99,10.0,WSW,10.4,21.9,N/A,,Clear,250,2013-03-16 17:58:00
1:58 PM,75.9,44.6,33,29.96,10.0,SW,12.7,-,N/A,,Clear,230,2013-03-16 18:58:00
2:37 PM,77.0,44.6,32,29.93,10.0,WSW,16.1,-,N/A,,Clear,250,2013-03-16 19:37:00
2:58 PM,77.2,44.1,31,29.93,10.0,SW,17.3,19.6,N/A,,Clear,220,2013-03-16 19:58:00
3:58 PM,77.9,44.6,31,29.91,10.0,SSW,10.4,-,N/A,,Clear,210,2013-03-16 20:58:00
4:58 PM,78.1,45.0,31,29.90,10.0,SSW,11.5,-,N/A,,Clear,200,2013-03-16 21:58:00
5:58 PM,77.0,44.8,32,29.90,10.0,SSW,10.4,-,N/A,,Clear,200,2013-03-16 22:58:00
6:58 PM,72.7,44.1,36,29.90,10.0,South,4.6,-,N/A,,Clear,180,2013-03-16 23:58:00
7:58 PM,64.9,43.9,46,29.91,10.0,South,4.6,-,N/A,,Clear,180,2013-03-17 00:58:00
8:58 PM,64.8,45.5,50,29.92,10.0,South,5.8,-,N/A,,Clear,180,2013-03-17 01:58:00
9:58 PM,64.9,47.1,52,29.93,7.0,South,5.8,-,N/A,,Clear,180,2013-03-17 02:58:00
10:58 PM,62.8,47.1,57,29.94,7.0,South,5.8,-,N/A,,Clear,190,2013-03-17 03:58:00
11:38 PM,62.6,48.2,59,29.93,4.0,South,5.8,-,N/A,,Haze,170,2013-03-17 04:38:00
11:53 PM,62.6,48.2,59,29.93,5.0,SSW,5.8,-,N/A,,Haze,200,2013-03-17 04:53:00
11:58 PM,62.8,47.8,58,29.94,7.0,South,8.1,-,N/A,,Clear,190,2013-03-17 04:58:00